| time (UTC) | temp C | wind direction | speed KPH | gust KPH | rain 1hr cm | rain 24hr cm | rain mn cm | humidity % | barometer mb |
| 20260902113422 | 22 | 346 | 1.6 | 3.2 | 0.00 | 0.00 | 0.00 | 98 | 1022.2 |
| 20260902112921 | 23 | 351 | 3.2 | 3.2 | 0.00 | 0.00 | 0.00 | 98 | 1022.3 |
| 20260902112412 | 22 | 350 | 3.2 | 3.2 | 0.00 | 0.00 | 0.00 | 98 | 1022.4 |
| 20260902111908 | 22 | 334 | 3.2 | 3.2 | 0.00 | 0.00 | 0.00 | 98 | 1022.4 |
| 20260902111404 | 22 | 342 | 1.6 | 3.2 | 0.00 | 0.00 | 0.00 | 99 | 1022.2 |
| 20260902110900 | 22 | 346 | 1.6 | 3.2 | 0.00 | 0.00 | 0.00 | 99 | 1022.3 |
| 20260902110355 | 22 | 333 | 1.6 | 3.2 | 0.00 | 0.00 | 0.00 | 99 | 1022.1 |
| 20260902105855 | 22 | 329 | 1.6 | 3.2 | 0.00 | 0.00 | 0.00 | 99 | 1022.3 |
| 20260902105350 | 23 | 345 | 1.6 | 4.8 | 0.00 | 0.00 | 0.00 | 99 | 1022.1 |
| 20260902104845 | 23 | 330 | 3.2 | 3.2 | 0.00 | 0.00 | 0.00 | 99 | 1021.9 |
| 20260902104341 | 23 | 337 | 1.6 | 3.2 | 0.00 | 0.00 | 0.00 | 99 | 1022.2 |
| 20260902103841 | 23 | 338 | 1.6 | 3.2 | 0.00 | 0.00 | 0.00 | 99 | 1022.1 |
| 20260902103336 | 23 | 347 | 1.6 | 3.2 | 0.00 | 0.00 | 0.00 | 99 | 1022.0 |
| 20260902102831 | 23 | 20 | 1.6 | 1.6 | 0.00 | 0.00 | 0.00 | 99 | 1022.2 |
| 20260902102329 | 23 | 325 | 3.2 | 3.2 | 0.00 | 0.00 | 0.00 | 99 | 1022.0 |
| 20260902101824 | 23 | 329 | 3.2 | 3.2 | 0.00 | 0.00 | 0.00 | 99 | 1022.0 |
| 20260902101319 | 23 | 329 | 3.2 | 3.2 | 0.00 | 0.00 | 0.00 | 99 | 1021.7 |
| 20260902100819 | 23 | 331 | 3.2 | 3.2 | 0.00 | 0.00 | 0.00 | 99 | 1021.9 |
| 20260902100318 | 23 | 345 | 1.6 | 3.2 | 0.00 | 0.00 | 0.00 | 99 | 1021.8 |
| 20260902095814 | 23 | 343 | 3.2 | 3.2 | 0.00 | 0.00 | 0.00 | 99 | 1021.7 |
| 20260902095313 | 23 | 340 | 3.2 | 3.2 | 0.00 | 0.00 | 0.00 | 98 | 1021.8 |
| 20260902094808 | 23 | 334 | 3.2 | 3.2 | 0.00 | 0.00 | 0.00 | 98 | 1021.7 |
| 20260902094304 | 23 | 342 | 3.2 | 3.2 | 0.00 | 0.00 | 0.00 | 98 | 1021.7 |
| 20260902093804 | 23 | 343 | 3.2 | 3.2 | 0.00 | 0.00 | 0.00 | 99 | 1021.6 |
| 20260902093259 | 23 | 339 | 3.2 | 3.2 | 0.00 | 0.00 | 0.00 | 98 | 1021.7 |
| 20260902092757 | 23 | 324 | 3.2 | 3.2 | 0.00 | 0.00 | 0.00 | 98 | 1021.7 |
| 20260902092253 | 23 | 345 | 1.6 | 3.2 | 0.00 | 0.00 | 0.00 | 98 | 1021.7 |
| 20260902091752 | 23 | 337 | 3.2 | 3.2 | 0.00 | 0.00 | 0.00 | 98 | 1021.6 |
| 20260902091249 | 23 | 339 | 1.6 | 3.2 | 0.00 | 0.00 | 0.00 | 98 | 1021.7 |
| 20260902090745 | 23 | 330 | 3.2 | 4.8 | 0.00 | 0.00 | 0.00 | 98 | 1021.5 |
| 20260902090244 | 23 | 350 | 3.2 | 3.2 | 0.00 | 0.00 | 0.00 | 98 | 1021.4 |
| 20260902085739 | 23 | 343 | 1.6 | 3.2 | 0.00 | 0.00 | 0.00 | 98 | 1021.3 |
| 20260902085234 | 23 | 341 | 3.2 | 3.2 | 0.00 | 0.00 | 0.00 | 98 | 1021.4 |
| 20260902084730 | 23 | 337 | 1.6 | 3.2 | 0.00 | 0.00 | 0.00 | 98 | 1021.5 |
| 20260902084226 | 23 | 343 | 1.6 | 1.6 | 0.00 | 0.00 | 0.00 | 98 | 1021.2 |
| 20260902083720 | 23 | 330 | 1.6 | 3.2 | 0.00 | 0.00 | 0.00 | 98 | 1021.3 |
| 20260902083215 | 23 | 336 | 3.2 | 3.2 | 0.00 | 0.00 | 0.00 | 98 | 1021.1 |
| 20260902082710 | 23 | 343 | 3.2 | 3.2 | 0.00 | 0.00 | 0.00 | 98 | 1021.0 |
| 20260902082207 | 23 | 336 | 3.2 | 3.2 | 0.00 | 0.00 | 0.00 | 98 | 1021.1 |
| 20260902081703 | 23 | 339 | 1.6 | 3.2 | 0.00 | 0.00 | 0.00 | 98 | 1021.3 |
| 20260902081202 | 23 | 336 | 3.2 | 3.2 | 0.00 | 0.00 | 0.00 | 98 | 1021.1 |
| 20260902080657 | 23 | 338 | 3.2 | 3.2 | 0.00 | 0.00 | 0.00 | 98 | 1021.0 |
| 20260902080154 | 23 | 333 | 3.2 | 3.2 | 0.00 | 0.00 | 0.00 | 98 | 1021.1 |
| 20260902075649 | 23 | 337 | 1.6 | 3.2 | 0.00 | 0.00 | 0.00 | 98 | 1020.8 |
| 20260902075145 | 23 | 348 | 1.6 | 4.8 | 0.00 | 0.00 | 0.00 | 98 | 1020.8 |
| 20260902074645 | 23 | 341 | 1.6 | 3.2 | 0.00 | 0.00 | 0.00 | 98 | 1020.8 |
| 20260902074140 | 23 | 335 | 3.2 | 3.2 | 0.00 | 0.00 | 0.00 | 97 | 1021.0 |
| 20260902073635 | 23 | 327 | 1.6 | 3.2 | 0.00 | 0.00 | 0.00 | 97 | 1020.9 |
| 20260902073132 | 23 | 329 | 1.6 | 3.2 | 0.00 | 0.00 | 0.00 | 97 | 1021.0 |
| 20260902072627 | 23 | 351 | 1.6 | 3.2 | 0.00 | 0.00 | 0.00 | 97 | 1020.9 |
| 20260902072124 | 23 | 334 | 3.2 | 3.2 | 0.00 | 0.00 | 0.00 | 97 | 1021.0 |
| 20260902071620 | 23 | 330 | 3.2 | 3.2 | 0.00 | 0.00 | 0.00 | 97 | 1021.2 |
| 20260902071115 | 23 | 333 | 1.6 | 3.2 | 0.00 | 0.00 | 0.00 | 97 | 1021.3 |
| 20260902070611 | 24 | 332 | 1.6 | 3.2 | 0.00 | 0.00 | 0.00 | 97 | 1021.3 |
| 20260902070105 | 23 | 341 | 3.2 | 4.8 | 0.00 | 0.00 | 0.00 | 97 | 1021.4 |
| 20260902065604 | 23 | 330 | 3.2 | 3.2 | 0.00 | 0.00 | 0.00 | 97 | 1021.3 |
| 20260902065100 | 24 | 356 | 1.6 | 3.2 | 0.00 | 0.00 | 0.00 | 97 | 1021.2 |
| 20260902064556 | 23 | 342 | 3.2 | 3.2 | 0.00 | 0.00 | 0.00 | 96 | 1021.2 |
| 20260902064056 | 23 | 333 | 3.2 | 3.2 | 0.00 | 0.00 | 0.00 | 96 | 1021.1 |
| 20260902063556 | 23 | 334 | 3.2 | 3.2 | 0.00 | 0.00 | 0.00 | 96 | 1021.1 |
| 20260902063051 | 23 | 332 | 3.2 | 3.2 | 0.00 | 0.00 | 0.00 | 96 | 1021.2 |
| 20260902062550 | 24 | 341 | 1.6 | 3.2 | 0.00 | 0.00 | 0.00 | 96 | 1021.2 |
| 20260902062046 | 23 | 334 | 3.2 | 3.2 | 0.00 | 0.00 | 0.00 | 95 | 1021.3 |
| 20260902061544 | 23 | 334 | 3.2 | 3.2 | 0.00 | 0.00 | 0.00 | 95 | 1021.2 |
| 20260902061041 | 23 | 333 | 3.2 | 3.2 | 0.00 | 0.00 | 0.00 | 95 | 1021.4 |
| 20260902060538 | 24 | 342 | 3.2 | 3.2 | 0.00 | 0.00 | 0.00 | 94 | 1021.3 |
| 20260902060034 | 24 | 336 | 3.2 | 3.2 | 0.00 | 0.00 | 0.00 | 94 | 1021.3 |
| 20260902055529 | 24 | 329 | 1.6 | 3.2 | 0.00 | 0.00 | 0.00 | 94 | 1021.2 |
| 20260902055025 | 24 | 346 | 3.2 | 3.2 | 0.00 | 0.00 | 0.00 | 93 | 1021.2 |
| 20260902054525 | 24 | 339 | 3.2 | 3.2 | 0.00 | 0.00 | 0.00 | 92 | 1021.3 |
| 20260902054020 | 23 | 339 | 3.2 | 3.2 | 0.00 | 0.00 | 0.00 | 92 | 1021.3 |
| 20260902053515 | 24 | 334 | 3.2 | 3.2 | 0.00 | 0.00 | 0.00 | 92 | 1021.2 |
| 20260902053010 | 24 | 331 | 3.2 | 3.2 | 0.00 | 0.00 | 0.00 | 92 | 1021.3 |
| 20260902052510 | 24 | 341 | 3.2 | 4.8 | 0.00 | 0.00 | 0.00 | 92 | 1021.3 |
| 20260902052005 | 24 | 335 | 3.2 | 3.2 | 0.00 | 0.00 | 0.00 | 92 | 1021.3 |
| 20260902051500 | 24 | 343 | 3.2 | 3.2 | 0.00 | 0.00 | 0.00 | 91 | 1021.3 |
| 20260902050958 | 24 | 341 | 3.2 | 3.2 | 0.00 | 0.00 | 0.00 | 91 | 1021.4 |
| 20260902050453 | 24 | 337 | 3.2 | 3.2 | 0.00 | 0.00 | 0.00 | 91 | 1021.3 |
| 20260902045948 | 24 | 341 | 3.2 | 3.2 | 0.00 | 0.00 | 0.00 | 91 | 1021.3 |
| 20260902045443 | 24 | 338 | 1.6 | 3.2 | 0.00 | 0.00 | 0.00 | 91 | 1021.1 |
| 20260902044939 | 24 | 340 | 3.2 | 3.2 | 0.00 | 0.00 | 0.00 | 90 | 1021.2 |
| 20260902044429 | 24 | 341 | 3.2 | 3.2 | 0.00 | 0.00 | 0.00 | 90 | 1021.2 |
| 20260902043925 | 25 | 341 | 3.2 | 3.2 | 0.00 | 0.00 | 0.00 | 90 | 1021.3 |
| 20260902043420 | 25 | 338 | 3.2 | 3.2 | 0.00 | 0.00 | 0.00 | 90 | 1021.4 |
| 20260902042915 | 25 | 337 | 3.2 | 3.2 | 0.00 | 0.00 | 0.00 | 91 | 1021.1 |
| 20260902042414 | 25 | 349 | 3.2 | 3.2 | 0.00 | 0.00 | 0.00 | 90 | 1021.0 |
| 20260902041909 | 25 | 334 | 3.2 | 4.8 | 0.00 | 0.00 | 0.00 | 89 | 1021.2 |
| 20260902041409 | 25 | 338 | 3.2 | 3.2 | 0.00 | 0.00 | 0.00 | 90 | 1021.3 |
| 20260902040908 | 25 | 332 | 3.2 | 4.8 | 0.00 | 0.00 | 0.00 | 89 | 1021.3 |
| 20260902040404 | 25 | 340 | 3.2 | 3.2 | 0.00 | 0.00 | 0.00 | 89 | 1021.2 |
| 20260902035903 | 25 | 338 | 3.2 | 3.2 | 0.00 | 0.00 | 0.00 | 90 | 1021.2 |
| 20260902035358 | 25 | 338 | 3.2 | 3.2 | 0.00 | 0.00 | 0.00 | 89 | 1021.3 |
| 20260902034856 | 25 | 341 | 3.2 | 3.2 | 0.00 | 0.00 | 0.00 | 89 | 1021.4 |
| 20260902034353 | 25 | 336 | 3.2 | 3.2 | 0.00 | 0.00 | 0.00 | 89 | 1021.2 |
| 20260902033851 | 25 | 341 | 3.2 | 3.2 | 0.00 | 0.00 | 0.00 | 88 | 1021.3 |
| 20260902033346 | 25 | 333 | 3.2 | 3.2 | 0.00 | 0.00 | 0.00 | 88 | 1021.2 |
| 20260902032844 | 25 | 342 | 1.6 | 3.2 | 0.00 | 0.00 | 0.00 | 88 | 1021.5 |
| 20260902032344 | 25 | 334 | 1.6 | 3.2 | 0.00 | 0.00 | 0.00 | 88 | 1021.3 |
| 20260902031839 | 25 | 334 | 3.2 | 3.2 | 0.00 | 0.00 | 0.00 | 88 | 1021.2 |
| 20260902031335 | 25 | 328 | 3.2 | 3.2 | 0.00 | 0.00 | 0.00 | 88 | 1021.3 |
| 20260902030830 | 26 | 1 | 1.6 | 3.2 | 0.00 | 0.00 | 0.00 | 88 | 1021.3 |
| 20260902030325 | 25 | 335 | 3.2 | 3.2 | 0.00 | 0.00 | 0.00 | 87 | 1021.5 |
| 20260902025824 | 26 | 348 | 1.6 | 3.2 | 0.00 | 0.00 | 0.00 | 88 | 1021.3 |
| 20260902025320 | 25 | 333 | 3.2 | 3.2 | 0.00 | 0.00 | 0.00 | 87 | 1021.5 |
| 20260902024815 | 26 | 338 | 3.2 | 4.8 | 0.00 | 0.00 | 0.00 | 86 | 1021.5 |
| 20260902024310 | 26 | 340 | 3.2 | 3.2 | 0.00 | 0.00 | 0.00 | 87 | 1021.5 |
| 20260902023805 | 26 | 341 | 3.2 | 3.2 | 0.00 | 0.00 | 0.00 | 86 | 1021.4 |
| 20260902023300 | 26 | 338 | 3.2 | 3.2 | 0.00 | 0.00 | 0.00 | 86 | 1021.6 |
| 20260902022759 | 26 | 340 | 3.2 | 3.2 | 0.00 | 0.00 | 0.00 | 86 | 1021.5 |
| 20260902022255 | 26 | 333 | 3.2 | 3.2 | 0.00 | 0.00 | 0.00 | 85 | 1021.4 |
| 20260902021751 | 26 | 341 | 3.2 | 3.2 | 0.00 | 0.00 | 0.00 | 85 | 1021.2 |
| 20260902021250 | 26 | 340 | 3.2 | 3.2 | 0.00 | 0.00 | 0.00 | 84 | 1021.5 |
| 20260902020747 | 26 | 341 | 1.6 | 3.2 | 0.00 | 0.00 | 0.00 | 84 | 1021.3 |
| 20260902020243 | 26 | 339 | 3.2 | 3.2 | 0.00 | 0.00 | 0.00 | 85 | 1021.2 |
| 20260902015737 | 26 | 333 | 3.2 | 3.2 | 0.00 | 0.00 | 0.00 | 85 | 1020.9 |
| 20260902015234 | 26 | 339 | 3.2 | 4.8 | 0.00 | 0.00 | 0.00 | 85 | 1021.1 |
| 20260902014730 | 26 | 334 | 1.6 | 3.2 | 0.00 | 0.00 | 0.00 | 84 | 1021.1 |
| 20260902014226 | 26 | 333 | 3.2 | 3.2 | 0.00 | 0.00 | 0.00 | 84 | 1021.0 |
| 20260902013724 | 27 | 340 | 3.2 | 3.2 | 0.00 | 0.00 | 0.00 | 84 | 1020.8 |
| 20260902013221 | 27 | 332 | 3.2 | 3.2 | 0.00 | 0.00 | 0.00 | 83 | 1020.8 |
| 20260902012716 | 27 | 336 | 3.2 | 3.2 | 0.00 | 0.00 | 0.00 | 82 | 1021.0 |
| 20260902012212 | 27 | 335 | 3.2 | 3.2 | 0.00 | 0.00 | 0.00 | 84 | 1020.9 |
| 20260902011707 | 27 | 335 | 1.6 | 4.8 | 0.00 | 0.00 | 0.00 | 82 | 1020.8 |
| 20260902011206 | 27 | 340 | 1.6 | 1.6 | 0.00 | 0.00 | 0.00 | 82 | 1020.9 |
| 20260902010705 | 27 | 331 | 3.2 | 3.2 | 0.00 | 0.00 | 0.00 | 81 | 1020.9 |
| 20260902010201 | 27 | 339 | 3.2 | 4.8 | 0.00 | 0.00 | 0.00 | 81 | 1020.7 |
| 20260902005659 | 27 | 341 | 3.2 | 4.8 | 0.00 | 0.00 | 0.00 | 80 | 1020.7 |
| 20260902005155 | 27 | 332 | 3.2 | 3.2 | 0.00 | 0.00 | 0.00 | 80 | 1020.5 |
| 20260902004655 | 27 | 336 | 3.2 | 3.2 | 0.00 | 0.00 | 0.00 | 80 | 1020.7 |
| 20260902004150 | 28 | 331 | 3.2 | 3.2 | 0.00 | 0.00 | 0.00 | 80 | 1020.6 |
| 20260902003646 | 28 | 351 | 3.2 | 4.8 | 0.00 | 0.00 | 0.00 | 80 | 1020.5 |
| 20260902003142 | 28 | 348 | 3.2 | 3.2 | 0.00 | 0.00 | 0.00 | 79 | 1020.8 |
| 20260902002636 | 28 | 2 | 3.2 | 3.2 | 0.00 | 0.00 | 0.00 | 80 | 1020.6 |
| 20260902002131 | 28 | 359 | 1.6 | 3.2 | 0.00 | 0.00 | 0.00 | 79 | 1020.5 |
| 20260902001626 | 28 | 333 | 3.2 | 4.8 | 0.00 | 0.00 | 0.00 | 79 | 1020.5 |
| 20260902001120 | 28 | 336 | 3.2 | 4.8 | 0.00 | 0.00 | 0.00 | 78 | 1020.6 |
| 20260902000616 | 29 | 349 | 3.2 | 3.2 | 0.00 | 0.00 | 0.00 | 77 | 1020.6 |
| 20260902000111 | 29 | 339 | 3.2 | 4.8 | 0.00 | 0.00 | 0.00 | 77 | 1020.5 |
| 20260901235610 | 29 | 341 | 3.2 | 3.2 | 0.00 | 0.00 | 0.00 | 76 | 1020.6 |
| 20260901235106 | 30 | 334 | 3.2 | 3.2 | 0.00 | 0.00 | 0.00 | 75 | 1020.7 |
| 20260901234604 | 30 | 339 | 3.2 | 3.2 | 0.00 | 0.00 | 0.00 | 73 | 1020.6 |
| 20260901234100 | 30 | 342 | 3.2 | 3.2 | 0.00 | 0.00 | 0.00 | 73 | 1020.5 |
| 20260901233600 | 30 | 340 | 3.2 | 3.2 | 0.00 | 0.00 | 0.00 | 70 | 1020.6 |
| 20260901233056 | 31 | 340 | 3.2 | 3.2 | 0.00 | 0.00 | 0.00 | 69 | 1020.5 |
| 20260901232551 | 31 | 339 | 1.6 | 3.2 | 0.00 | 0.00 | 0.00 | 67 | 1020.7 |
| 20260901232046 | 31 | 329 | 1.6 | 3.2 | 0.00 | 0.00 | 0.00 | 67 | 1020.9 |
| 20260901231543 | 32 | 9 | 1.6 | 1.6 | 0.00 | 0.00 | 0.00 | 66 | 1020.8 |
| 20260901231039 | 32 | 351 | 1.6 | 1.6 | 0.00 | 0.00 | 0.00 | 65 | 1020.7 |
| 20260901230539 | 32 | 55 | 0.0 | 1.6 | 0.00 | 0.00 | 0.00 | 64 | 1020.6 |
| 20260901230034 | 33 | 86 | 0.0 | 0.0 | 0.00 | 0.00 | 0.00 | 64 | 1020.5 |
| 20260901225529 | 33 | 356 | 1.6 | 1.6 | 0.00 | 0.00 | 0.00 | 62 | 1020.5 |
| 20260901225029 | 33 | 103 | 0.0 | 4.8 | 0.00 | 0.00 | 0.00 | 59 | 1020.4 |
| 20260901224525 | 33 | 113 | 1.6 | 3.2 | 0.00 | 0.00 | 0.00 | 60 | 1020.5 |
| 20260901224021 | 33 | 74 | 0.0 | 4.8 | 0.00 | 0.00 | 0.00 | 59 | 1020.5 |
| 20260901223516 | 33 | 88 | 3.2 | 4.8 | 0.00 | 0.00 | 0.00 | 60 | 1020.4 |
| 20260901223012 | 33 | 106 | 3.2 | 3.2 | 0.00 | 0.00 | 0.00 | 57 | 1020.5 |
| 20260901222508 | 33 | 137 | 3.2 | 4.8 | 0.00 | 0.00 | 0.00 | 55 | 1020.4 |
| 20260901222003 | 34 | 116 | 1.6 | 1.6 | 0.00 | 0.00 | 0.00 | 59 | 1020.3 |
| 20260901221500 | 34 | 128 | 1.6 | 1.6 | 0.00 | 0.00 | 0.00 | 53 | 1020.6 |
| 20260901221000 | 34 | 127 | 3.2 | 3.2 | 0.00 | 0.00 | 0.00 | 54 | 1020.3 |
| 20260901220459 | 34 | 117 | 1.6 | 1.6 | 0.00 | 0.00 | 0.00 | 58 | 1020.4 |
| 20260901215958 | 35 | 144 | 1.6 | 1.6 | 0.00 | 0.00 | 0.00 | 50 | 1020.2 |
| 20260901215456 | 35 | 141 | 0.0 | 1.6 | 0.00 | 0.00 | 0.00 | 54 | 1020.4 |
| 20260901214956 | 37 | 162 | 0.0 | 1.6 | 0.00 | 0.00 | 0.00 | 50 | 1020.5 |
| 20260901214454 | 36 | 160 | 0.0 | 0.0 | 0.00 | 0.00 | 0.00 | 49 | 1020.3 |
| 20260901213949 | 35 | 108 | 0.0 | 1.6 | 0.00 | 0.00 | 0.00 | 54 | 1020.4 |
| 20260901213444 | 34 | 106 | 1.6 | 1.6 | 0.00 | 0.00 | 0.00 | 57 | 1020.5 |
| 20260901212943 | 33 | 112 | 3.2 | 3.2 | 0.00 | 0.00 | 0.00 | 57 | 1020.7 |
| 20260901212439 | 36 | 161 | 0.0 | 0.0 | 0.00 | 0.00 | 0.00 | 49 | 1020.4 |
| 20260901211936 | 35 | 103 | 0.0 | 4.8 | 0.00 | 0.00 | 0.00 | 51 | 1020.6 |
| 20260901211431 | 34 | 107 | 1.6 | 3.2 | 0.00 | 0.00 | 0.00 | 52 | 1020.7 |
| 20260901210926 | 35 | 140 | 1.6 | 3.2 | 0.00 | 0.00 | 0.00 | 50 | 1020.5 |
| 20260901210423 | 33 | 125 | 1.6 | 6.4 | 0.00 | 0.00 | 0.00 | 56 | 1020.7 |
| 20260901205919 | 33 | 100 | 3.2 | 6.4 | 0.00 | 0.00 | 0.00 | 55 | 1020.5 |
| 20260901205418 | 33 | 119 | 3.2 | 3.2 | 0.00 | 0.00 | 0.00 | 59 | 1020.6 |
| 20260901204913 | 33 | 121 | 3.2 | 4.8 | 0.00 | 0.00 | 0.00 | 53 | 1020.6 |
| 20260901204410 | 33 | 137 | 1.6 | 3.2 | 0.00 | 0.00 | 0.00 | 57 | 1020.5 |
| 20260901203910 | 33 | 150 | 3.2 | 3.2 | 0.00 | 0.00 | 0.00 | 56 | 1020.9 |
| 20260901203404 | 33 | 124 | 3.2 | 3.2 | 0.00 | 0.00 | 0.00 | 57 | 1020.9 |
| 20260901202859 | 33 | 130 | 3.2 | 3.2 | 0.00 | 0.00 | 0.00 | 55 | 1020.8 |
| 20260901202354 | 33 | 126 | 1.6 | 4.8 | 0.00 | 0.00 | 0.00 | 57 | 1021.1 |
| 20260901201851 | 33 | 137 | 3.2 | 3.2 | 0.00 | 0.00 | 0.00 | 56 | 1021.2 |
| 20260901201350 | 33 | 117 | 3.2 | 3.2 | 0.00 | 0.00 | 0.00 | 57 | 1021.1 |
| 20260901200850 | 33 | 111 | 1.6 | 4.8 | 0.00 | 0.00 | 0.00 | 62 | 1021.2 |
| 20260901200345 | 33 | 104 | 6.4 | 6.4 | 0.00 | 0.00 | 0.00 | 57 | 1021.2 |
| 20260901195844 | 33 | 116 | 3.2 | 4.8 | 0.00 | 0.00 | 0.00 | 57 | 1021.1 |
| 20260901195337 | 33 | 127 | 1.6 | 3.2 | 0.00 | 0.00 | 0.00 | 61 | 1021.1 |
| 20260901194833 | 33 | 111 | 3.2 | 4.8 | 0.00 | 0.00 | 0.00 | 59 | 1021.2 |
| 20260901194332 | 32 | 117 | 3.2 | 4.8 | 0.00 | 0.00 | 0.00 | 63 | 1021.2 |
| 20260901193829 | 32 | 118 | 3.2 | 4.8 | 0.00 | 0.00 | 0.00 | 59 | 1021.4 |
| 20260901193328 | 32 | 123 | 3.2 | 4.8 | 0.00 | 0.00 | 0.00 | 62 | 1021.4 |
| 20260901192822 | 32 | 114 | 3.2 | 4.8 | 0.00 | 0.00 | 0.00 | 60 | 1021.5 |
| 20260901192318 | 32 | 127 | 4.8 | 4.8 | 0.00 | 0.00 | 0.00 | 65 | 1021.9 |
| 20260901191815 | 32 | 123 | 3.2 | 4.8 | 0.00 | 0.00 | 0.00 | 64 | 1021.7 |
| 20260901191309 | 32 | 119 | 3.2 | 4.8 | 0.00 | 0.00 | 0.00 | 67 | 1021.7 |
| 20260901190806 | 32 | 116 | 4.8 | 4.8 | 0.00 | 0.00 | 0.00 | 61 | 1021.8 |
| 20260901190305 | 32 | 115 | 4.8 | 4.8 | 0.00 | 0.00 | 0.00 | 60 | 1021.7 |
| 20260901185804 | 32 | 154 | 1.6 | 3.2 | 0.00 | 0.00 | 0.00 | 61 | 1021.9 |
| 20260901185305 | 32 | 142 | 4.8 | 4.8 | 0.00 | 0.00 | 0.00 | 62 | 1022.0 |
| 20260901184758 | 32 | 135 | 3.2 | 3.2 | 0.00 | 0.00 | 0.00 | 61 | 1022.1 |
| 20260901184254 | 32 | 135 | 3.2 | 3.2 | 0.00 | 0.00 | 0.00 | 61 | 1021.9 |
| 20260901183749 | 32 | 136 | 3.2 | 3.2 | 0.00 | 0.00 | 0.00 | 61 | 1022.1 |
| 20260901183249 | 32 | 144 | 3.2 | 4.8 | 0.00 | 0.00 | 0.00 | 61 | 1022.1 |
| 20260901182745 | 32 | 136 | 1.6 | 3.2 | 0.00 | 0.00 | 0.00 | 59 | 1022.2 |
| 20260901182244 | 32 | 96 | 1.6 | 4.8 | 0.00 | 0.00 | 0.00 | 58 | 1022.2 |
| 20260901181739 | 32 | 119 | 4.8 | 4.8 | 0.00 | 0.00 | 0.00 | 58 | 1022.3 |
| 20260901181233 | 32 | 117 | 4.8 | 6.4 | 0.00 | 0.00 | 0.00 | 60 | 1022.4 |
| 20260901180732 | 32 | 115 | 4.8 | 6.4 | 0.00 | 0.00 | 0.00 | 57 | 1022.3 |
| 20260901180232 | 32 | 100 | 6.4 | 6.4 | 0.00 | 0.00 | 0.00 | 60 | 1022.4 |
| 20260901175731 | 32 | 101 | 6.4 | 6.4 | 0.00 | 0.00 | 0.00 | 63 | 1022.3 |
| 20260901175226 | 31 | 121 | 3.2 | 4.8 | 0.00 | 0.00 | 0.00 | 68 | 1022.5 |
| 20260901174721 | 31 | 111 | 3.2 | 4.8 | 0.00 | 0.00 | 0.00 | 67 | 1022.7 |
| 20260901174217 | 31 | 116 | 3.2 | 4.8 | 0.00 | 0.00 | 0.00 | 67 | 1022.4 |
| 20260901173712 | 31 | 103 | 4.8 | 4.8 | 0.00 | 0.00 | 0.00 | 69 | 1022.9 |
| 20260901173207 | 31 | 111 | 4.8 | 4.8 | 0.00 | 0.00 | 0.00 | 67 | 1022.7 |
| 20260901172704 | 31 | 137 | 1.6 | 3.2 | 0.00 | 0.00 | 0.00 | 66 | 1022.9 |
| 20260901172202 | 31 | 136 | 1.6 | 3.2 | 0.00 | 0.00 | 0.00 | 67 | 1023.1 |
| 20260901171701 | 32 | 146 | 1.6 | 3.2 | 0.00 | 0.00 | 0.00 | 66 | 1023.1 |
| 20260901171201 | 33 | 170 | 1.6 | 1.6 | 0.00 | 0.00 | 0.00 | 63 | 1023.0 |
| 20260901170700 | 32 | 181 | 1.6 | 3.2 | 0.00 | 0.00 | 0.00 | 64 | 1023.1 |
| 20260901170154 | 31 | 173 | 1.6 | 3.2 | 0.00 | 0.00 | 0.00 | 66 | 1023.3 |
| 20260901165653 | 30 | 146 | 1.6 | 3.2 | 0.00 | 0.00 | 0.00 | 70 | 1023.4 |
| 20260901165149 | 30 | 139 | 3.2 | 3.2 | 0.00 | 0.00 | 0.00 | 70 | 1023.3 |
| 20260901164645 | 30 | 139 | 1.6 | 3.2 | 0.00 | 0.00 | 0.00 | 71 | 1023.5 |
| 20260901164140 | 30 | 131 | 1.6 | 1.6 | 0.00 | 0.00 | 0.00 | 71 | 1023.4 |
| 20260901163635 | 30 | 125 | 1.6 | 3.2 | 0.00 | 0.00 | 0.00 | 70 | 1023.7 |
| 20260901163134 | 30 | 93 | 3.2 | 3.2 | 0.00 | 0.00 | 0.00 | 72 | 1023.7 |
| 20260901162630 | 30 | 107 | 1.6 | 3.2 | 0.00 | 0.00 | 0.00 | 74 | 1023.8 |
| 20260901162129 | 30 | 115 | 3.2 | 3.2 | 0.00 | 0.00 | 0.00 | 74 | 1023.8 |
| 20260901161628 | 30 | 116 | 3.2 | 3.2 | 0.00 | 0.00 | 0.00 | 74 | 1023.7 |
| 20260901161128 | 30 | 112 | 1.6 | 3.2 | 0.00 | 0.00 | 0.00 | 73 | 1023.9 |
| 20260901160625 | 30 | 118 | 1.6 | 3.2 | 0.00 | 0.00 | 0.00 | 71 | 1023.9 |
| 20260901160125 | 29 | 118 | 1.6 | 3.2 | 0.00 | 0.00 | 0.00 | 73 | 1024.1 |
| 20260901155624 | 29 | 122 | 1.6 | 3.2 | 0.00 | 0.00 | 0.00 | 75 | 1024.1 |
| 20260901155119 | 29 | 125 | 1.6 | 3.2 | 0.00 | 0.00 | 0.00 | 75 | 1024.2 |
| 20260901154614 | 29 | 115 | 1.6 | 3.2 | 0.00 | 0.00 | 0.00 | 75 | 1024.1 |
| 20260901154109 | 29 | 120 | 0.0 | 1.6 | 0.00 | 0.00 | 0.00 | 74 | 1024.1 |
| 20260901153604 | 29 | 120 | 1.6 | 3.2 | 0.00 | 0.00 | 0.00 | 76 | 1024.2 |
| 20260901153103 | 29 | 126 | 0.0 | 1.6 | 0.00 | 0.00 | 0.00 | 75 | 1024.2 |
| 20260901152558 | 28 | 125 | 1.6 | 1.6 | 0.00 | 0.00 | 0.00 | 76 | 1024.3 |
| 20260901152056 | 28 | 125 | 1.6 | 3.2 | 0.00 | 0.00 | 0.00 | 78 | 1024.4 |
| 20260901151553 | 28 | 125 | 3.2 | 3.2 | 0.00 | 0.00 | 0.00 | 80 | 1024.3 |
| 20260901151052 | 28 | 109 | 1.6 | 3.2 | 0.00 | 0.00 | 0.00 | 79 | 1024.2 |
| 20260901150550 | 28 | 113 | 3.2 | 3.2 | 0.00 | 0.00 | 0.00 | 82 | 1024.4 |
| 20260901150049 | 27 | 105 | 3.2 | 3.2 | 0.00 | 0.00 | 0.00 | 82 | 1024.2 |
| 20260901145549 | 27 | 119 | 3.2 | 3.2 | 0.00 | 0.00 | 0.00 | 81 | 1024.3 |
| 20260901145048 | 27 | 123 | 3.2 | 4.8 | 0.00 | 0.00 | 0.00 | 80 | 1024.1 |
| 20260901144544 | 27 | 119 | 3.2 | 4.8 | 0.00 | 0.00 | 0.00 | 81 | 1024.2 |
| 20260901144038 | 27 | 110 | 3.2 | 3.2 | 0.00 | 0.00 | 0.00 | 83 | 1024.2 |
| 20260901143534 | 27 | 126 | 3.2 | 3.2 | 0.00 | 0.00 | 0.00 | 83 | 1024.2 |
| 20260901143031 | 27 | 125 | 3.2 | 3.2 | 0.00 | 0.00 | 0.00 | 83 | 1024.3 |
| 20260901142526 | 27 | 124 | 3.2 | 4.8 | 0.00 | 0.00 | 0.00 | 85 | 1024.1 |
| 20260901142021 | 27 | 116 | 3.2 | 3.2 | 0.00 | 0.00 | 0.00 | 84 | 1024.2 |
| 20260901141521 | 27 | 110 | 1.6 | 3.2 | 0.00 | 0.00 | 0.00 | 85 | 1024.3 |
| 20260901141015 | 27 | 116 | 1.6 | 3.2 | 0.00 | 0.00 | 0.00 | 86 | 1024.3 |
| 20260901140514 | 26 | 116 | 1.6 | 3.2 | 0.00 | 0.00 | 0.00 | 87 | 1024.3 |
| 20260901140008 | 26 | 124 | 3.2 | 3.2 | 0.00 | 0.00 | 0.00 | 87 | 1024.3 |
| 20260901135502 | 26 | 122 | 3.2 | 3.2 | 0.00 | 0.00 | 0.00 | 88 | 1024.3 |
| 20260901134958 | 26 | 126 | 3.2 | 3.2 | 0.00 | 0.00 | 0.00 | 88 | 1024.2 |
| 20260901134454 | 26 | 131 | 3.2 | 3.2 | 0.00 | 0.00 | 0.00 | 87 | 1024.3 |
| 20260901133953 | 26 | 140 | 1.6 | 3.2 | 0.00 | 0.00 | 0.00 | 88 | 1024.1 |
| 20260901133452 | 27 | 137 | 3.2 | 3.2 | 0.00 | 0.00 | 0.00 | 85 | 1024.1 |
| 20260901132951 | 28 | 147 | 1.6 | 1.6 | 0.00 | 0.00 | 0.00 | 80 | 1024.3 |
| 20260901132451 | 29 | 158 | 0.0 | 1.6 | 0.00 | 0.00 | 0.00 | 81 | 1024.2 |
| 20260901131950 | 27 | 161 | 1.6 | 1.6 | 0.00 | 0.00 | 0.00 | 83 | 1024.2 |
| 20260901131445 | 27 | 150 | 1.6 | 1.6 | 0.00 | 0.00 | 0.00 | 84 | 1024.3 |
| 20260901130941 | 27 | 160 | 1.6 | 3.2 | 0.00 | 0.00 | 0.00 | 84 | 1024.0 |
| 20260901130441 | 28 | 161 | 0.0 | 1.6 | 0.00 | 0.00 | 0.00 | 85 | 1024.2 |
| 20260901125938 | 27 | 175 | 1.6 | 1.6 | 0.00 | 0.00 | 0.00 | 86 | 1024.2 |
| 20260901125433 | 26 | 144 | 1.6 | 3.2 | 0.00 | 0.00 | 0.00 | 87 | 1024.1 |
| 20260901124932 | 27 | 144 | 1.6 | 1.6 | 0.00 | 0.00 | 0.00 | 85 | 1024.3 |
| 20260901124428 | 26 | 155 | 0.0 | 0.0 | 0.00 | 0.00 | 0.00 | 93 | 1024.1 |
| 20260901123922 | 25 | 94 | 0.0 | 0.0 | 0.00 | 0.00 | 0.00 | 94 | 1024.1 |
| 20260901123418 | 24 | 58 | 0.0 | 0.0 | 0.00 | 0.00 | 0.00 | 96 | 1024.1 |
| 20260901122915 | 24 | 350 | 1.6 | 1.6 | 0.00 | 0.00 | 0.00 | 96 | 1023.9 |
| 20260901122410 | 23 | 344 | 1.6 | 1.6 | 0.00 | 0.00 | 0.00 | 97 | 1024.0 |
| 20260901121909 | 23 | 344 | 1.6 | 3.2 | 0.00 | 0.00 | 0.00 | 97 | 1023.8 |
| 20260901121405 | 23 | 354 | 1.6 | 3.2 | 0.00 | 0.00 | 0.00 | 98 | 1023.8 |
| 20260901120901 | 23 | 336 | 1.6 | 3.2 | 0.00 | 0.00 | 0.00 | 98 | 1023.8 |
| 20260901120355 | 23 | 19 | 1.6 | 3.2 | 0.00 | 0.00 | 0.00 | 98 | 1023.6 |
| 20260901115850 | 22 | 345 | 0.0 | 1.6 | 0.00 | 0.00 | 0.00 | 99 | 1023.6 |
| 20260901115350 | 22 | 350 | 1.6 | 3.2 | 0.00 | 0.00 | 0.00 | 99 | 1023.7 |
| 20260901114849 | 22 | 340 | 1.6 | 3.2 | 0.00 | 0.00 | 0.00 | 99 | 1023.5 |
| 20260901114348 | 22 | 358 | 1.6 | 3.2 | 0.00 | 0.00 | 0.00 | 99 | 1023.5 |
| 20260901113846 | 22 | 350 | 1.6 | 3.2 | 0.00 | 0.00 | 0.00 | 99 | 1023.3 |